Location: Newark
(51.3318°N, 0.0053°E)
Time: 17:54:47
(UTC+00:00)

N. Korean satellite - Visible Passes

Search period start: 24 January 2022 00:00
Search period end: 03 February 2022 00:00
Orbit: 447 x 491 km, 97.3° (Epoch: 23 January)

Date Brightness Start Highest point End Pass type
(mag) Time Alt. Az. Time Alt. Az. Time Alt. Az.
24 Jan 7.1 05:11:12 10° NNE 05:14:49 59° ESE 05:15:57 38° SSE visible
24 Jan 8.2 06:45:23 10° NNW 06:47:33 15° WNW 06:49:43 10° W visible
24 Jan 9.7 17:24:22 10° SW 17:26:35 16° W 17:28:51 10° NW visible
25 Jan 8.6 04:42:19 10° NE 04:45:30 28° E 04:46:52 22° SE visible
25 Jan 7.5 06:15:28 10° N 06:18:37 28° WNW 06:20:56 15° WSW visible
26 Jan 9.7 04:14:01 10° NE 04:16:04 14° E 04:17:47 11° ESE visible
26 Jan 6.6 05:45:58 10° N 05:49:33 55° WNW 05:51:51 20° SW visible
27 Jan 6.8 05:16:43 10° NNE 05:20:22 68° ESE 05:22:47 20° S visible
27 Jan 8.4 06:51:09 10° NNW 06:53:02 14° WNW 06:54:54 10° W visible
27 Jan 9.8 17:30:13 10° WSW 17:32:09 14° W 17:34:08 10° NW visible
28 Jan 8.4 04:47:44 10° NNE 04:51:03 32° E 04:53:43 14° SSE visible
28 Jan 7.6 06:21:04 10° N 06:24:05 25° WNW 06:27:04 10° WSW visible
29 Jan 9.5 04:19:13 10° NE 04:21:35 16° E 04:23:56 10° SE visible
29 Jan 6.7 05:51:27 10° N 05:54:59 48° WNW 05:58:30 10° SW visible
30 Jan 6.6 05:22:07 10° NNE 05:25:47 79° ESE 05:29:24 10° S visible
30 Jan 8.5 06:56:52 10° NW 06:58:22 12° WNW 06:59:53 10° W visible
30 Jan 10.0 17:36:00 10° WSW 17:37:36 12° W 17:39:12 10° WNW visible
31 Jan 8.1 04:53:02 10° NNE 04:56:27 36° E 04:59:49 10° SSE visible
31 Jan 7.8 06:26:32 10° NNW 06:29:24 22° WNW 06:32:14 10° WSW visible
01 Feb 9.3 04:24:22 10° NE 04:26:58 18° E 04:29:33 10° SE visible
01 Feb 6.9 05:56:50 10° N 06:00:18 42° WNW 06:03:44 10° SW visible
02 Feb 6.5 05:27:25 10° NNE 05:31:05 90° WNW 05:34:41 10° SSW visible
02 Feb 8.6 07:02:36 10° NW 07:03:35 11° WNW 07:04:34 10° WNW visible
02 Feb 10.2 17:41:51 10° WSW 17:42:55 11° W 17:44:00 10° WNW visible
